Showing default

COSMOS 2533, 43867

Orbit data source: Space-Track

COSMOS 2533, 43867 is a Commonwealth of Independent States-origin payload satellite in GEO that was launched on Fri, 21 Dec 2018 UTC via a PROTON-M/BRIZ-M launch vehicle from the Tyuratam Missile And Space Complex (TTMTR). Payload-class satellites include a variety of spacecraft equipped with specific instruments for various scientific and technological missions. These include communications satellites like Starlink; space stations such as the ISS; scientific satellites like the Hubble; Earth observation satellites from companies like Planet Labs, Umbra, and HawkEye 360; GPS; miniature CubeSats for education and research; and military/defense satellites.

Not visible in the next 10 days
Identifier
43867, 2018-107A
Orbit
GEO
Country
Flag of CISCIS
Related business
Manufacturer
Resehetnev ISS
Mission
Operational Defense Communications
Bus & Motor
EKSPRESS-2000?, AOCS
Mass
3,162 kg wet, ~2,000 kg dry
Launch date (UTC)
2018-12-21 (8 years ago)
Launch vehicle
PROTON-M/BRIZ-M
Launch site
Tyuratam Missile And Space Complex (TTMTR)
Object type
Payload
Rocket body
Debris
Shape & HBR
Cyl + 2 Pan, 13.5 m
Radar Cross Section
24.423 m², Medium (>0.1 m² and < 1m²)

Expand to show TLE details & history
Last TLE update: 1 day ago

TLE from 1 day ago
0 COSMOS 2533
1 43867U 18107A   26172.00909387 -.00000041  00000-0  00000+0 0  9994
2 43867   0.0461  99.0527 0000696 340.4839 262.9366  1.00273046 27483
Epoch: 2026-06-21T00:13Z
TLE epoch observation values (Epoch: 2026-06-21T00:13:05.710Z)
Latitude
-0.04278°
Longitude
69.98756°
Altitude
35,786.103 km
Speed
3.075 km/s
True Right ascension
22h 49m 54s
True Declination
0° 02' 34"
Sunlit
Object was in daylight at epoch
Visualization orbit readout
Latitude
Unknown
Longitude
Unknown
Altitude
Unknown
Speed
Unknown
Apparent Right ascension
Unknown
Apparent Declination
Unknown
Sunlit
N/A
Visualization observer readout
Local Sidereal Time
21:25:45
Azimuth
Unknown
Elevation
Unknown
Doppler factor
Unknown
Orbital elements
Apogee altitude
35,790.247 km
Perigee altitude
35,784.377 km
Semi-major axis
42,165.449 km
Eccentricity
0.00007
Inclination
0.0461°
RAAN
99.0527°
Arg. of periapsis
340.4839°
True anomaly
262.92869°
Mean anomaly
262.9366°
Eccentric anomaly
262.93264°
Mean motion
0.25067 °/min
Orbital period
1,436.13 mins
BSTAR
0
Loading maneuver chart data...
Computing Atmospheric mass density...
Loading historical data...
Loading historical data...
Loading historical data...
Loading historical data...
Loading historical data...
Loading historical data...
Loading historical data...
Other satellites on launch #107 in the year 2018 (2018-12-21 UTC)

Documentation

Showing up to 5 results
|